KI5NXU Weather Reports


Display with metric or nautical units.
time (UTC)temp
F
wind
direction
speed
MPH
gust
MPH
rain 1hr
in
rain 24hr
in
rain mn
in
humidity
%
barometer
mb
20260901140840 83 217 3.0 3.0 0.00 0.00 0.00 63 1017.2
20260901140338 83 214 3.0 5.0 0.00 0.00 0.00 64 1017.3
20260901135833 82 131 1.0 1.0 0.00 0.00 0.00 64 1017.1
20260901135328 82 359 1.0 1.0 0.00 0.00 0.00 64 1017.2
20260901134824 82 44 2.0 2.0 0.00 0.00 0.00 63 1017.2
20260901134319 82 97 0.0 1.0 0.00 0.00 0.00 63 1017.2
20260901133813 83 154 1.0 1.0 0.00 0.00 0.00 62 1017.3
20260901133312 82 128 0.0 0.0 0.00 0.00 0.00 63 1017.1
20260901132810 82 112 0.0 1.0 0.00 0.00 0.00 63 1017.2
20260901132307 80 101 0.0 0.0 0.00 0.00 0.00 66 1017.2
20260901131800 79 101 0.0 1.0 0.00 0.00 0.00 67 1017.1
20260901131300 79 101 0.0 0.0 0.00 0.00 0.00 66 1017.2
20260901130754 77 101 0.0 0.0 0.00 0.00 0.00 68 1017.1
20260901130249 77 101 0.0 0.0 0.00 0.00 0.00 69 1017.0
20260901125747 76 100 0.0 1.0 0.00 0.00 0.00 69 1017.0
20260901125242 75 101 1.0 1.0 0.00 0.00 0.00 69 1017.1
20260901124742 76 103 1.0 2.0 0.00 0.00 0.00 68 1016.8
20260901124236 76 96 1.0 1.0 0.00 0.00 0.00 68 1016.7
20260901123736 76 92 0.0 0.0 0.00 0.00 0.00 69 1016.8
20260901123231 76 78 2.0 2.0 0.00 0.00 0.00 68 1017.0
20260901122729 76 108 2.0 2.0 0.00 0.00 0.00 68 1016.8
20260901122225 76 126 0.0 1.0 0.00 0.00 0.00 69 1016.4
20260901121719 76 126 0.0 0.0 0.00 0.00 0.00 69 1016.4
20260901121215 76 126 0.0 0.0 0.00 0.00 0.00 68 1016.3
20260901120714 76 126 0.0 1.0 0.00 0.00 0.00 68 1016.3
20260901120209 76 127 0.0 1.0 0.00 0.00 0.00 68 1016.3
20260901115704 76 127 1.0 1.0 0.00 0.00 0.00 68 1016.3
20260901115200 76 127 0.0 1.0 0.00 0.00 0.00 68 1016.6
20260901114657 76 127 0.0 0.0 0.00 0.00 0.00 68 1016.3
20260901114156 75 115 0.0 0.0 0.00 0.00 0.00 69 1016.2
20260901113655 75 116 0.0 0.0 0.00 0.00 0.00 68 1016.6
20260901113151 76 112 0.0 0.0 0.00 0.00 0.00 67 1016.2
20260901112645 76 96 0.0 0.0 0.00 0.00 0.00 67 1016.1
20260901112144 75 100 1.0 1.0 0.00 0.00 0.00 67 1016.4
20260901111644 75 89 0.0 1.0 0.00 0.00 0.00 67 1016.3
20260901111144 75 111 1.0 1.0 0.00 0.00 0.00 67 1016.3
20260901110639 74 94 1.0 1.0 0.00 0.00 0.00 67 1016.3
20260901110134 75 98 1.0 1.0 0.00 0.00 0.00 66 1016.2
20260901105631 75 93 1.0 2.0 0.00 0.00 0.00 66 1016.0
20260901105130 75 97 0.0 0.0 0.00 0.00 0.00 65 1016.3
20260901104626 75 91 1.0 2.0 0.00 0.00 0.00 65 1016.3
20260901104121 75 82 2.0 2.0 0.00 0.00 0.00 65 1016.1
20260901103620 75 97 1.0 1.0 0.00 0.00 0.00 65 1016.1
20260901103116 74 89 2.0 2.0 0.00 0.00 0.00 65 1016.1
20260901102610 75 93 2.0 2.0 0.00 0.00 0.00 65 1016.0
20260901102105 75 103 1.0 1.0 0.00 0.00 0.00 65 1015.9
20260901101601 76 98 0.0 1.0 0.00 0.00 0.00 64 1015.9
20260901101100 76 99 1.0 1.0 0.00 0.00 0.00 64 1016.1
20260901100600 76 99 0.0 0.0 0.00 0.00 0.00 64 1015.9
20260901100055 76 99 0.0 0.0 0.00 0.00 0.00 64 1016.0
20260901095553 76 99 0.0 0.0 0.00 0.00 0.00 63 1015.7
20260901095050 77 99 1.0 1.0 0.00 0.00 0.00 62 1015.7
20260901094546 78 100 0.0 0.0 0.00 0.00 0.00 61 1015.9
20260901094045 78 96 0.0 1.0 0.00 0.00 0.00 60 1015.9
20260901093540 77 75 0.0 0.0 0.00 0.00 0.00 61 1016.0
20260901093035 76 74 0.0 0.0 0.00 0.00 0.00 62 1016.0
20260901092531 77 73 0.0 0.0 0.00 0.00 0.00 62 1015.8
20260901092026 76 73 1.0 1.0 0.00 0.00 0.00 62 1015.9
20260901091521 77 106 0.0 1.0 0.00 0.00 0.00 61 1016.0
20260901091016 77 105 1.0 1.0 0.00 0.00 0.00 60 1016.0
20260901090515 77 82 0.0 1.0 0.00 0.00 0.00 60 1016.0
20260901090011 77 83 0.0 1.0 0.00 0.00 0.00 61 1015.9
20260901085507 77 78 1.0 1.0 0.00 0.00 0.00 60 1015.7
20260901085003 77 79 1.0 1.0 0.00 0.00 0.00 61 1015.6
20260901084458 77 94 0.0 0.0 0.00 0.00 0.00 61 1015.6
20260901083954 77 64 0.0 1.0 0.00 0.00 0.00 61 1015.5
20260901083448 77 62 0.0 0.0 0.00 0.00 0.00 61 1015.6
20260901082946 77 98 0.0 0.0 0.00 0.00 0.00 62 1015.8
20260901082441 77 95 1.0 1.0 0.00 0.00 0.00 62 1016.0
20260901081936 77 94 0.0 0.0 0.00 0.00 0.00 61 1015.8
20260901081431 77 94 0.0 0.0 0.00 0.00 0.00 61 1015.7
20260901080926 77 94 0.0 0.0 0.00 0.00 0.00 61 1015.7
20260901080421 77 94 0.0 0.0 0.00 0.00 0.00 62 1015.6
20260901075921 77 94 0.0 0.0 0.00 0.00 0.00 61 1015.6
20260901075416 77 94 0.0 0.0 0.00 0.00 0.00 61 1015.6
20260901074915 78 94 0.0 0.0 0.00 0.00 0.00 60 1015.3
20260901074410 78 94 0.0 0.0 0.00 0.00 0.00 59 1015.6
20260901073906 78 94 0.0 1.0 0.00 0.00 0.00 58 1015.5
20260901073402 78 94 0.0 0.0 0.00 0.00 0.00 60 1015.6
20260901072857 79 94 0.0 0.0 0.00 0.00 0.00 59 1015.6
20260901072357 79 92 0.0 0.0 0.00 0.00 0.00 58 1015.5
20260901071852 79 92 0.0 0.0 0.00 0.00 0.00 58 1015.5
20260901071350 80 92 0.0 0.0 0.00 0.00 0.00 57 1015.4
20260901070850 80 91 0.0 0.0 0.00 0.00 0.00 59 1015.2
20260901070346 79 91 0.0 1.0 0.00 0.00 0.00 58 1015.4
20260901065844 80 91 0.0 0.0 0.00 0.00 0.00 58 1015.3
20260901065340 80 91 0.0 0.0 0.00 0.00 0.00 57 1015.3
20260901064835 80 91 0.0 1.0 0.00 0.00 0.00 56 1015.6
20260901064331 79 95 1.0 1.0 0.00 0.00 0.00 58 1015.7
20260901063829 80 127 0.0 0.0 0.00 0.00 0.00 57 1015.4
20260901063325 81 128 0.0 0.0 0.00 0.00 0.00 56 1015.4
20260901062821 82 129 0.0 0.0 0.00 0.00 0.00 54 1015.5
20260901062317 82 133 1.0 1.0 0.00 0.00 0.00 53 1015.2
20260901061812 82 134 1.0 1.0 0.00 0.00 0.00 53 1015.2
20260901061312 82 135 1.0 1.0 0.00 0.00 0.00 53 1015.3
20260901060808 82 122 1.0 1.0 0.00 0.00 0.00 53 1015.4
20260901060303 82 119 1.0 1.0 0.00 0.00 0.00 52 1015.3
20260901055758 82 149 2.0 2.0 0.00 0.00 0.00 52 1015.2
20260901055255 82 146 2.0 2.0 0.00 0.00 0.00 52 1015.3
20260901054752 82 134 1.0 1.0 0.00 0.00 0.00 52 1015.1
20260901054248 83 138 1.0 2.0 0.00 0.00 0.00 52 1015.2
20260901053743 83 148 2.0 2.0 0.00 0.00 0.00 52 1015.2
20260901053238 83 135 0.0 0.0 0.00 0.00 0.00 52 1015.2
20260901052734 83 136 0.0 1.0 0.00 0.00 0.00 51 1015.1
20260901052229 84 145 1.0 1.0 0.00 0.00 0.00 50 1014.9
20260901051728 84 143 1.0 1.0 0.00 0.00 0.00 50 1015.1
20260901051222 84 162 2.0 3.0 0.00 0.00 0.00 49 1014.9
20260901050718 85 148 2.0 2.0 0.00 0.00 0.00 49 1015.1
20260901050213 85 144 2.0 3.0 0.00 0.00 0.00 49 1014.9
20260901045708 85 144 1.0 1.0 0.00 0.00 0.00 48 1015.0
20260901045202 85 154 2.0 2.0 0.00 0.00 0.00 48 1014.9
20260901044653 85 146 1.0 2.0 0.00 0.00 0.00 48 1015.0
20260901044149 86 138 2.0 2.0 0.00 0.00 0.00 47 1014.9
20260901043644 86 158 3.0 3.0 0.00 0.00 0.00 47 1015.1
20260901043140 86 168 3.0 3.0 0.00 0.00 0.00 47 1015.0
20260901042639 85 155 2.0 2.0 0.00 0.00 0.00 47 1015.1
20260901042134 86 151 1.0 2.0 0.00 0.00 0.00 47 1014.9
20260901041630 86 137 1.0 1.0 0.00 0.00 0.00 46 1015.0
20260901041125 86 149 1.0 2.0 0.00 0.00 0.00 46 1014.9
20260901040624 86 145 0.0 1.0 0.00 0.00 0.00 46 1015.0
20260901040118 86 141 0.0 1.0 0.00 0.00 0.00 46 1014.7
20260901035616 87 153 1.0 2.0 0.00 0.00 0.00 45 1015.0
20260901035115 87 160 2.0 3.0 0.00 0.00 0.00 44 1014.7
20260901034614 87 165 3.0 5.0 0.00 0.00 0.00 44 1014.9
20260901034109 87 137 1.0 1.0 0.00 0.00 0.00 44 1014.8
20260901033608 88 148 2.0 2.0 0.00 0.00 0.00 43 1014.7
20260901033103 88 151 2.0 2.0 0.00 0.00 0.00 43 1014.7
20260901032601 88 150 2.0 2.0 0.00 0.00 0.00 42 1014.7
20260901032057 88 162 2.0 2.0 0.00 0.00 0.00 42 1014.6
20260901031552 89 154 2.0 2.0 0.00 0.00 0.00 42 1014.6
20260901031048 89 144 2.0 2.0 0.00 0.00 0.00 41 1014.7
20260901030548 89 154 3.0 3.0 0.00 0.00 0.00 41 1014.5
20260901030043 89 164 3.0 5.0 0.00 0.00 0.00 40 1014.4
20260901025542 90 155 3.0 3.0 0.00 0.00 0.00 40 1014.2
20260901025043 90 142 2.0 2.0 0.00 0.00 0.00 40 1014.4
20260901024538 90 144 3.0 5.0 0.00 0.00 0.00 39 1014.3
20260901024036 90 148 4.0 7.0 0.00 0.00 0.00 40 1014.2
20260901023535 90 153 2.0 3.0 0.00 0.00 0.00 39 1014.2
20260901023031 90 136 3.0 3.0 0.00 0.00 0.00 39 1014.1
20260901022526 91 155 3.0 6.0 0.00 0.00 0.00 39 1014.0
20260901022021 91 142 1.0 1.0 0.00 0.00 0.00 39 1014.1
20260901021517 91 162 2.0 3.0 0.00 0.00 0.00 38 1013.9
20260901021012 91 156 4.0 5.0 0.00 0.00 0.00 38 1013.7
20260901020507 91 150 3.0 3.0 0.00 0.00 0.00 38 1013.7
20260901020002 91 148 2.0 2.0 0.00 0.00 0.00 39 1013.8
20260901015458 91 144 3.0 3.0 0.00 0.00 0.00 38 1013.6
20260901014957 92 143 3.0 3.0 0.00 0.00 0.00 38 1013.7
20260901014453 92 142 3.0 3.0 0.00 0.00 0.00 38 1013.5
20260901013949 92 168 3.0 5.0 0.00 0.00 0.00 38 1013.8
20260901013444 93 161 2.0 2.0 0.00 0.00 0.00 37 1013.5
20260901012939 93 180 4.0 5.0 0.00 0.00 0.00 37 1013.7
20260901012434 93 152 1.0 2.0 0.00 0.00 0.00 37 1013.6
20260901011929 93 170 4.0 5.0 0.00 0.00 0.00 37 1013.4
20260901011426 93 149 5.0 6.0 0.00 0.00 0.00 36 1013.6
20260901010923 93 166 7.0 9.0 0.00 0.00 0.00 36 1013.5
20260901010419 94 150 3.0 6.0 0.00 0.00 0.00 36 1013.3
20260901005918 94 163 5.0 6.0 0.00 0.00 0.00 35 1013.4
20260901005413 94 159 4.0 5.0 0.00 0.00 0.00 35 1013.2
20260901004908 95 152 3.0 5.0 0.00 0.00 0.00 35 1013.2
20260901004407 95 184 3.0 3.0 0.00 0.00 0.00 35 1013.0
20260901003902 95 153 4.0 6.0 0.00 0.00 0.00 35 1013.2
20260901003357 96 193 5.0 7.0 0.00 0.00 0.00 34 1013.2
20260901002855 96 179 3.0 3.0 0.00 0.00 0.00 34 1012.9
20260901002355 97 143 3.0 3.0 0.00 0.00 0.00 34 1013.2
20260901001849 97 157 3.0 5.0 0.00 0.00 0.00 33 1012.9
20260901001345 98 123 3.0 5.0 0.00 0.00 0.00 33 1013.0
20260901000841 98 126 3.0 5.0 0.00 0.00 0.00 33 1013.0
20260901000336 99 174 6.0 11.0 0.00 0.00 0.00 32 1012.8
20260831235833 99 152 2.0 5.0 0.00 0.00 0.00 32 1013.2
20260831235330 99 131 3.0 3.0 0.00 0.00 0.00 31 1012.9
20260831234825 99 159 4.0 5.0 0.00 0.00 0.00 31 1013.0
20260831234325 100 149 4.0 6.0 0.00 0.00 0.00 30 1013.3
20260831233820 101 186 7.0 10.0 0.00 0.00 0.00 30 1013.0
20260831233315 102 144 5.0 7.0 0.00 0.00 0.00 28 1012.9
20260831232810 102 173 2.0 3.0 0.00 0.00 0.00 28 1012.9
20260831232307 101 145 5.0 8.0 0.00 0.00 0.00 29 1012.8
20260831231802 101 148 5.0 7.0 0.00 0.00 0.00 29 1012.9
20260831231259 101 175 4.0 6.0 0.00 0.00 0.00 29 1013.0
20260831230754 102 127 4.0 6.0 0.00 0.00 0.00 28 1012.8
20260831230249 102 136 0.0 0.0 0.00 0.00 0.00 28 1012.9
20260831225748 102 144 3.0 3.0 0.00 0.00 0.00 28 1012.9
20260831225243 102 147 2.0 6.0 0.00 0.00 0.00 28 1012.9
20260831224738 102 132 3.0 3.0 0.00 0.00 0.00 28 1012.9
20260831224233 102 159 3.0 5.0 0.00 0.00 0.00 28 1013.3
20260831223728 101 195 5.0 7.0 0.00 0.00 0.00 29 1013.3
20260831223225 102 186 3.0 5.0 0.00 0.00 0.00 27 1013.3
20260831222715 102 188 2.0 3.0 0.00 0.00 0.00 27 1013.2
20260831222210 103 157 3.0 6.0 0.00 0.00 0.00 26 1013.3
20260831221705 104 136 7.0 9.0 0.00 0.00 0.00 26 1013.2
20260831221201 105 155 2.0 3.0 0.00 0.00 0.00 26 1012.9
20260831220650 103 159 2.0 2.0 0.00 0.00 0.00 27 1013.0
20260831220145 102 86 3.0 3.0 0.00 0.00 0.00 28 1013.0
20260831215640 103 124 2.0 6.0 0.00 0.00 0.00 27 1013.5
20260831215136 104 164 3.0 5.0 0.00 0.00 0.00 26 1013.0
20260831214633 104 182 2.0 3.0 0.00 0.00 0.00 27 1013.5
20260831214129 103 125 1.0 2.0 0.00 0.00 0.00 27 1013.5
20260831213626 102 143 1.0 2.0 0.00 0.00 0.00 28 1013.7
20260831213120 102 183 1.0 1.0 0.00 0.00 0.00 28 1013.6
20260831212617 103 122 2.0 2.0 0.00 0.00 0.00 28 1013.7
20260831212113 103 183 5.0 6.0 0.00 0.00 0.00 28 1013.8
20260831211612 103 142 2.0 3.0 0.00 0.00 0.00 28 1013.9
20260831211111 104 219 7.0 9.0 0.00 0.00 0.00 26 1013.9
20260831210606 103 194 3.0 5.0 0.00 0.00 0.00 27 1014.0
20260831205602 103 153 3.0 5.0 0.00 0.00 0.00 27 1014.1
20260831205058 104 172 3.0 5.0 0.00 0.00 0.00 27 1014.1
20260831204553 101 207 5.0 6.0 0.00 0.00 0.00 29 1014.4
20260831204051 100 246 4.0 6.0 0.00 0.00 0.00 30 1014.1
20260831203546 102 201 6.0 7.0 0.00 0.00 0.00 29 1014.1
20260831203046 103 140 3.0 5.0 0.00 0.00 0.00 28 1014.6
20260831202545 103 199 2.0 2.0 0.00 0.00 0.00 29 1014.5
20260831202045 100 125 1.0 2.0 0.00 0.00 0.00 30 1014.5
20260831201543 102 148 1.0 1.0 0.00 0.00 0.00 30 1014.6
20260831201039 101 153 1.0 2.0 0.00 0.00 0.00 30 1014.4
20260831200535 102 177 5.0 7.0 0.00 0.00 0.00 30 1014.8
20260831200034 101 151 2.0 2.0 0.00 0.00 0.00 30 1014.9
20260831195530 99 270 5.0 6.0 0.00 0.00 0.00 32 1014.8
20260831195025 100 220 5.0 6.0 0.00 0.00 0.00 30 1015.0
20260831194514 101 145 1.0 1.0 0.00 0.00 0.00 30 1015.2
20260831194009 100 181 2.0 5.0 0.00 0.00 0.00 30 1015.1
20260831193504 100 181 3.0 5.0 0.00 0.00 0.00 31 1015.0
20260831192959 100 172 1.0 2.0 0.00 0.00 0.00 32 1015.0
20260831192454 100 165 1.0 2.0 0.00 0.00 0.00 32 1015.3
20260831191949 100 159 1.0 2.0 0.00 0.00 0.00 32 1015.3
20260831191445 100 173 2.0 3.0 0.00 0.00 0.00 32 1015.3
20260831190941 100 212 5.0 6.0 0.00 0.00 0.00 32 1015.3
20260831190436 98 191 6.0 8.0 0.00 0.00 0.00 33 1015.4
20260831185935 98 96 0.0 1.0 0.00 0.00 0.00 33 1015.2
20260831185431 100 98 4.0 6.0 0.00 0.00 0.00 32 1015.6
20260831184930 99 159 2.0 2.0 0.00 0.00 0.00 32 1015.4
20260831184425 98 172 3.0 3.0 0.00 0.00 0.00 36 1015.7
20260831183921 98 159 1.0 2.0 0.00 0.00 0.00 35 1016.0
20260831183420 99 151 2.0 5.0 0.00 0.00 0.00 34 1015.8
20260831182914 95 203 6.0 7.0 0.00 0.00 0.00 37 1016.0
20260831182409 96 232 5.0 6.0 0.00 0.00 0.00 38 1015.8
20260831181904 98 221 9.0 10.0 0.00 0.00 0.00 36 1016.2
20260831181400 96 147 2.0 2.0 0.00 0.00 0.00 37 1016.0
20260831180900 95 124 0.0 1.0 0.00 0.00 0.00 38 1016.2
20260831180354 99 133 2.0 5.0 0.00 0.00 0.00 36 1016.3
20260831175853 98 177 3.0 5.0 0.00 0.00 0.00 37 1016.4
20260831175350 96 186 4.0 7.0 0.00 0.00 0.00 37 1016.4
20260831174846 96 164 3.0 6.0 0.00 0.00 0.00 37 1016.7
20260831174341 95 222 3.0 5.0 0.00 0.00 0.00 40 1016.6
20260831173840 96 183 4.0 6.0 0.00 0.00 0.00 41 1016.3
20260831173340 95 156 1.0 2.0 0.00 0.00 0.00 40 1016.8
20260831172835 96 207 6.0 8.0 0.00 0.00 0.00 40 1016.9
20260831172331 95 188 3.0 5.0 0.00 0.00 0.00 41 1016.8
20260831171830 96 199 6.0 7.0 0.00 0.00 0.00 40 1016.9
20260831171327 96 223 5.0 9.0 0.00 0.00 0.00 40 1017.0
20260831170823 97 140 1.0 2.0 0.00 0.00 0.00 40 1017.1
20260831170319 95 126 1.0 2.0 0.00 0.00 0.00 41 1017.2
20260831165815 95 156 3.0 6.0 0.00 0.00 0.00 42 1017.1
20260831165312 95 184 3.0 3.0 0.00 0.00 0.00 42 1017.2
20260831164807 94 146 3.0 5.0 0.00 0.00 0.00 43 1017.1
20260831164303 95 144 5.0 9.0 0.00 0.00 0.00 42 1017.2
20260831163759 95 154 7.0 9.0 0.00 0.00 0.00 42 1017.3
20260831163254 95 186 4.0 5.0 0.00 0.00 0.00 43 1017.2
20260831162753 94 155 2.0 3.0 0.00 0.00 0.00 44 1017.3
20260831162248 93 194 4.0 5.0 0.00 0.00 0.00 44 1017.3
20260831161741 92 200 5.0 6.0 0.00 0.00 0.00 47 1017.4
20260831161238 91 198 4.0 5.0 0.00 0.00 0.00 51 1017.1
20260831160732 92 211 3.0 5.0 0.00 0.00 0.00 47 1017.3
20260831160227 90 229 7.0 8.0 0.00 0.00 0.00 50 1017.3
20260831155726 89 212 3.0 5.0 0.00 0.00 0.00 52 1017.2
20260831155222 89 219 6.0 7.0 0.00 0.00 0.00 53 1017.2
20260831154718 89 221 6.0 7.0 0.00 0.00 0.00 52 1017.3
20260831154214 89 224 7.0 8.0 0.00 0.00 0.00 53 1017.0
20260831153713 89 226 7.0 8.0 0.00 0.00 0.00 54 1016.9
20260831153208 89 206 6.0 7.0 0.00 0.00 0.00 55 1016.9
20260831152704 87 225 5.0 7.0 0.00 0.00 0.00 56 1016.8
20260831152200 87 211 6.0 8.0 0.00 0.00 0.00 57 1016.8
20260831151700 86 210 5.0 6.0 0.00 0.00 0.00 58 1016.9
20260831151154 87 222 9.0 9.0 0.00 0.00 0.00 57 1017.0
20260831150649 88 209 3.0 3.0 0.00 0.00 0.00 57 1017.0
20260831150145 87 197 5.0 7.0 0.00 0.00 0.00 57 1017.1
20260831145644 87 164 2.0 2.0 0.00 0.00 0.00 57 1017.1
20260831145141 87 131 2.0 3.0 0.00 0.00 0.00 57 1016.9
20260831144636 87 143 0.0 1.0 0.00 0.00 0.00 58 1017.1
20260831144132 87 168 3.0 3.0 0.00 0.00 0.00 58 1017.0
20260831143631 86 183 3.0 3.0 0.00 0.00 0.00 59 1017.0
20260831143126 86 156 3.0 3.0 0.00 0.00 0.00 60 1016.9
20260831142623 86 121 0.0 1.0 0.00 0.00 0.00 60 1017.0
20260831142118 86 177 4.0 5.0 0.00 0.00 0.00 61 1017.0
20260831141617 85 146 2.0 3.0 0.00 0.00 0.00 62 1016.7